Regional Weather Roundup
Issued by NWS

Home | Current Version | Previous Version | Text Only | Print | Product List | Glossary On
Versions: 1 2 3 4 5 6 7 8 9 10 11 12 13 14 15 16 17 18 19 20 21 22 23 24 25 26 27 28 29 30 31 32 33 34 35 36 37 38 39 40 41 42 43 44 45 46 47 48 49 50
000
ASUS42 KTBW 061117
RWRFL
FLORIDA REGIONAL WEATHER ROUNDUP
NATIONAL WEATHER SERVICE TAMPA BAY RUSKIN FL
700 AM EDT MON JUL 06 2015

NOTE: "FAIR" INDICATES FEW OR NO CLOUDS BELOW 12,000 FEET WITH NO
SIGNIFICANT WEATHER AND/OR OBSTRUCTIONS TO VISIBILITY.


FLZ001>010-012>015-112-114-115-061200-
PANHANDLE FLORIDA

CITY           SKY/WX    TMP DP  RH WIND       PRES   REMARKS
PENSACOLA      MOCLDY    72  69  90 CALM      30.14R
PENSACOLA NAS  MOCLDY    71  68  90 CALM      30.13R
MILTON NAS     MOCLDY    68  67  96 N5        30.15
CRESTVIEW      PTCLDY    67  66  97 CALM      30.16R
DUKE FIELD     FAIR      69  66  92 N2        30.13R
VALPARAISO     MOCLDY    73  69  86 W1        30.13R
MARY ESTHER    CLOUDY    71  68  89 CALM      30.12R
TRI COUNTY     FAIR      68  68 100 CALM      30.16R
PANAMA CITY    FAIR      72  70  93 CALM      30.13R
TYNDALL AFB    PTCLDY    73  70  93 S3        30.14R
APALACHICOLA   PTCLDY    75  69  81 NW3       30.13R

STATION/POSITION SKY/WX   TEMP    WIND        PRES    WAVE   SWELL
                          AIR SEA DIR/SP/G            HT/PER HT/PER
                          (F)     (DEG/KT/KT) (MB)    (FT/S) (FT/S)
30.1N   87.6W              82 83  210/  8/ 10 1019.6R   2/ 3
29.2N   88.2W              82 84  190/  6/  8 1020.5R   1/ 5   2/ 5
28.8N   86.0W              83 84  160/  8/ 10 1020.4R   2/ 8   2/ 8
PANAMA CITY BEAC           80 82  240/  7/  8 1019.6R
CAPE SAN BLAS    NOT AVBL
TOWER C                    81     210/  6/  6 1020.1R
28.5N   84.5W              84 85  170/  4/  6 1020.1R   1/ 8   2/ 8

$$
FLZ011-016>038-118-127-128-134-139-239-061200-
NORTH FLORIDA

CITY           SKY/WX    TMP DP  RH WIND       PRES   REMARKS
MARIANNA       CLEAR     70  70 100 N3        30.14R
TALLAHASSEE    MOCLDY    70  68  93 CALM      30.14R
PERRY          CLEAR     69  69 100 CALM      30.15R FOG
CROSS CITY       N/A     70  68  93 CALM      30.13S
LAKE CITY      FAIR      64  64 100 CALM      30.15R FOG
GAINESVILLE    CLEAR     66  65  96 CALM      30.14S
MAYPORT NAS    PTCLDY    71  69  93 CALM      30.14R
JACKSONVILLE   PTCLDY    67  67 100 CALM      30.13S
JAX NAS        PTCLDY    74  68  81 CALM      30.15R
JAX CRAIG      CLEAR     69  67  93 CALM      30.14R
JAX CECIL      PTCLDY    64  64 100 CALM      30.14S FOG
FERNANDINA BEA FAIR      73  70  88 SW3       30.13R
ST AUGUSTINE   CLEAR     70  69  97 CALM      30.15R

STATION/POSITION SKY/WX   TEMP    WIND        PRES    WAVE   SWELL
                          AIR SEA DIR/SP/G            HT/PER HT/PER
                          (F)     (DEG/KT/KT) (MB)    (FT/S) (FT/S)
SHELL POINT                74     310/  4/  5   N/A
KEATON BEACH               73      40/  2/  2 1020.6R
CEDAR KEY                  77      50/  3/  3 1020.8R
FERNANDINA                 72 82  240/  5/  6 1019.7R
30.7N   81.3W                 76                N/A     2/ 8
MAYPORT                    72 79  240/  5/  6 1020.5S
31.4N   80.9W              76 79  270/ 10/ 12 1020.6R   2/ 8   2/ 8
ST AUGUSTINE               70 71  280/  3/  3 1021.4S

$$
FLZ040-043>046-052-053-057-058-063-144-061200-
INTERIOR CENTRAL FLORIDA

CITY           SKY/WX    TMP DP  RH WIND       PRES   REMARKS
OCALA          CLEAR     68  66  94 CALM      30.15R
THE VILLAGES     N/A    N/A N/A N/A CALM      30.05S
LEESBURG       CLEAR     72  70  93 CALM      30.15R
SANFORD        PTCLDY    72  70  93 E3        30.14R
ORLANDO EXEC   PTCLDY    72  72 100 E3        30.14R
ORLANDO INTL   MOCLDY    73  71  93 VRB7      30.14R
KISSIMMEE      CLEAR     72  72 100 CALM      30.15
WINTER HAVEN   PTCLDY    73  71  93 S5        30.15R
LAKELAND       MOCLDY    72  70  94 CALM      30.14S
OKEECHOBEE     CLOUDY    70  68  94 CALM      30.17R

$$
FLZ041-047-054-059-064-141-147-061200-
EAST CENTRAL FLORIDA

CITY           SKY/WX    TMP DP  RH WIND       PRES   REMARKS
ORMOND BEACH   MOCLDY    68  68 100 CALM      30.14  FOG
DAYTONA BEACH  MOCLDY    72  70  93 NW5       30.14R
DELAND           N/A     70  70 100 CALM      30.15S
NEW SMYRNA BEA CLEAR     72  70  94 CALM      30.15
JFK SPACE CTR  MOCLDY    70  68  94 CALM      30.13F
TITUSVILLE     MOCLDY    73  70  88 CALM      30.14
PATRICK AFB    MOCLDY    76  71  84 E2        30.13S
MELBOURNE      MOCLDY    72  68  87 S6        30.14R
VERO BEACH     CLOUDY    72  67  84 CALM      30.15R
FT PIERCE      CLOUDY    73  68  84 CALM      30.15R

STATION/POSITION SKY/WX   TEMP    WIND        PRES    WAVE   SWELL
                          AIR SEA DIR/SP/G            HT/PER HT/PER
                          (F)     (DEG/KT/KT) (MB)    (FT/S) (FT/S)
28.5N   80.2W              79 80  210/  4/  6 1020.9R
28.9N   78.5W              84 83  180/ 12/ 16 1020.2R
TRIDENT PIER               74 79   40/  3/  3 1021.0R
28.4N   80.5W                 78                N/A     2/ 8
27.5N   80.2W                 78                N/A     1/ 7

$$
FLZ050-056-061-142-242-148-248-149-249-151-251-155-255-
160-260-061200-
WEST CENTRAL FLORIDA

CITY           SKY/WX    TMP DP  RH WIND       PRES   REMARKS
CRYSTAL RIVER  FAIR      68  68 100 CALM      30.14S
INVERNESS      FAIR     N/A N/A N/A CALM      30.15S FOG
BROOKSVILLE    PTCLDY    70  69  97 CALM      30.16R
ZEPHYRHILLS    FAIR      64  64 100 CALM      30.15R FOG
CLEARWATER     MOCLDY    63  32  31 CALM      30.14R
TAMPA INTL     MOCLDY    77  69  76 CALM      30.14R
TAMPA EXEC     MOCLDY    72  70  94 CALM      30.14S
PLANT CITY     MOCLDY    73  72  94 CALM      30.16R
MACDILL AFB    PTCLDY    73  73  99 CALM      30.13R
PETER O KNIGHT MOCLDY    79  73  83 E5        30.14R
ST PETERSBURG  PTCLDY    78  70  76 S3        30.12R
SARASOTA       PTCLDY    71  70  96 E3        30.12S
VENICE         FAIR      73  72  94 E6        30.15S

STATION/POSITION SKY/WX   TEMP    WIND        PRES    WAVE   SWELL
                          AIR SEA DIR/SP/G            HT/PER HT/PER
                          (F)     (DEG/KT/KT) (MB)    (FT/S) (FT/S)
CEDAR KEY                  77      50/  3/  3 1020.8R
28.5N   84.5W              84 85  170/  4/  6 1020.1R   1/ 8   2/ 8
27.3N   84.2W                 86                N/A     3/ 5
CLEARWATER BEACH NOT AVBL
MIDDLE TAMPA BAY                  210/  3/  4 1020.1F
VENICE                     73 88   40/  6/  8 1020.1R

$$
FLZ066-069-070-075>078-162-262-165-265-061200-
SOUTHWEST FLORIDA AND KEYS

CITY           SKY/WX    TMP DP  RH WIND       PRES   REMARKS
PUNTA GORDA    CLEAR     71  71 100 N3        30.16R
FT MYERS       PTCLDY    73  72  96 CALM      30.14R
SOUTHWEST INTL MOCLDY    73  70  90 CALM      30.15R
MARCO ISLAND   SUNNY     73  66  78 N6        30.14R
MARATHON       PTCLDY    83  77  82 E8G17     30.11S
KEY WEST NAS   MOCLDY    82  76  81 E20       30.09S
KEY WEST INTL  PTCLDY    83  78  85 E18       30.10R

STATION/POSITION SKY/WX   TEMP    WIND        PRES    WAVE   SWELL
                          AIR SEA DIR/SP/G            HT/PER HT/PER
                          (F)     (DEG/KT/KT) (MB)    (FT/S) (FT/S)
VENICE                     73 88   40/  6/  8 1020.1R
NAPLES                        87              1020.7R
26.0N   85.6W              84 85  100/  8/ 10 1019.6R   3/ 8   3/ 8
DRY TORTUGAS               84     120/ 18/ 20 1018.4F
NW FL BAY                  81     100/ 18/ 21 1019.4
SAND KEY                   83     110/ 19/ 22 1018.8F
SOMBRERO KEY               83     110/ 18/ 19 1020.2R
LONG KEY                   84 86  130/ 15/ 17 1020.2F
MOLASSES REEF              83 85  120/ 17/ 19 1019.7F

$$
FLZ067-068-071>074-168-172>174-061200-
SOUTHEAST FLORIDA

CITY           SKY/WX    TMP DP  RH WIND       PRES   REMARKS
W PALM BEACH   CLOUDY    81  74  79 SE7       30.12R
FT LAUDER-EXEC MOCLDY    81  74  79 SE14      30.08F
FT LAUDERDALE  MOCLDY    82  77  84 SE16      30.09F
POMPANO BEACH  MOCLDY    82  75  79 SE20      30.08F
PEMBROKE PINES MOCLDY    81  72  74 SE8       30.11F
OPA LOCKA      CLOUDY    79  73  82 SE12      30.10F
MIAMI          CLOUDY    79  74  84 E12       30.11F
WEST KENDALL   CLOUDY    80  74  81 SE10      30.10F
HOMESTEAD      NOT AVBL

STATION/POSITION SKY/WX   TEMP    WIND        PRES    WAVE   SWELL
                          AIR SEA DIR/SP/G            HT/PER HT/PER
                          (F)     (DEG/KT/KT) (MB)    (FT/S) (FT/S)
PORT EVERGLADES            82      80/  9/ 13 1019.6F
VIRGINIA KEY               83 88   80/ 13/ 16 1019.3F
LAKE WORTH                 82 85  130/ 19/ 22 1018.3F
SETTLEMENT POINT           81     140/ 11/ 13 1020.7F

$$



USA.gov is the U.S. government's official web portal to all federal, state and local government web resources and services.